Location: Dos Palmas
(32.4468°N, 116.8732°W)
Time: 02:18:51
(UTC+00:00)

DELTA 2 DEB (DPAF) - Pass Details

Date: 20 June 2021
Orbit: 639 x 645 km, 98.4° (Epoch: 27 July)

Event Time Altitude Azimuth Distance (km) Brightness Sun altitude
Exits shadow 10:53:48 41° 225° (SW) 934 4.4 -18.8°
Maximum altitude 10:54:41 47° 260° (W) 852 4.4 -18.7°
Drops below altitude 10° 10:58:59 10° 334° (NNW) 2,043 6.9 -18.1°
Sets 11:01:16 0° 341° (NNW) 2,955 7.9 -17.7°
